Weather in L'Ancienne-Lorette

Canada     46°48′45″N   71°13′09″W
temp.,
°C
wind,
m/s
gust,
m/s
humid.,
%
clouds,
%
prec.,
mm/h
press.,
hPa
HPBL,
m
10 may, mon
mon1023:00+7sw1287100 0.4 101034
02:00+5ssw119398 0.6 101027
05:00+4ese11938 0.0 101014
08:00+8ene237910 0.0 1011430
11:00+12ene325810 0.0 1011947
14:00+16e134633 0.1 10091773
17:00+14ne235290 0.2 1009953
20:00+8ne267774 0.4 1011195
11 may, tue
tue1123:00+8ene2385100 0.1 1011119
02:00+7sse1296100 2.7 1011122
05:00+7e1396100 6.3 1010281
08:00+7sw2496100 7.6 1011413
11:00+7ssw1492100 1.1 1012603
14:00+6ne339075 1.9 1012308
17:00+10nne146053 0.0 10101112
20:00+6ne2283100 0.1 1011131
12 may, wed
wed1223:00+5ene3695100 1.0 1012423
02:00+5wnw3795100 2.4 1012372
05:00+4w239763 0.0 101361
08:00+7wnw24835 0.0 1015387
11:00+12nnw5747100 0.1 10152151
14:00+13nw5747100 0.2 10162068
17:00+14n494399 0.1 10162352
20:00+9ese237176 0.1 1018140
13 may, thu
thu1323:00+6wsw00775 0.0 101911
02:00+5wsw23813 0.0 101952
05:00+4wsw24783 0.0 102072
08:00+9wsw356081 0.0 1021272
11:00+15nw5949100 0.0 10201798
14:00+15wnw375695 0.1 10181230
17:00+15nw5106871 0.8 10181479
20:00+11wsw34834 1.3 101871
14 may, fri
fri1423:00+8w25910 0.0 101997
02:00+7w11860 0.0 101919
05:00+5wsw11821 0.0 102015
08:00+10wsw12605 0.0 1022267
11:00+15wsw25402 0.0 10211551
14:00+19wnw473587 0.0 10182650
17:00+20wnw26395 0.0 10172374
20:00+13wsw5108062 0.6 1018300